Dallas/Ft Worth, TX

9:55 AM CDT on October 20, 2017 (GMT -0500)
Dallas-Fort Worth International

Weather History for KDFW - November, 2010

Change the Weather History Date:

Sunday, November 21, 2010

  Actual Average Record
Temperature  
Mean Temperature 73 °F 54 °F  
Max Temperature 81 °F 65 °F 83 °F (1967)
Min Temperature 64 °F 44 °F 22 °F (1906)
Degree Days  
Heating Degree Days 0 11  
Month to date heating degree days 144 164  
Since 1 July heating degree days 170 236  
Cooling Degree Days 8 0  
Month to date cooling degree days 19 27  
Year to date cooling degree days 3189 2750  
Growing Degree Days 22 (Base 50)    
Moisture  
Dew Point 62 °F    
Average Humidity 69    
Maximum Humidity 87    
Minimum Humidity 51    
Precipitation  
Precipitation 0.00 in 0.08 in 1.40 in (1916)
Month to date precipitation 1.44 2.04  
Year to date precipitation 29.59 32.92  
Snow  
Snow 0.00 in 0.00 in 2.20 in (1929)
Month to date snowfall 0.0 0.0  
Since 1 July snowfall 0.0 0.0  
Since 1 September snowfall 0.0 0.0  
Snow Depth 0.00 in    
Sea Level Pressure  
Sea Level Pressure 29.93 in    
Wind  
Wind Speed 18 mph (South)    
Max Wind Speed 32 mph    
Max Gust Speed 39 mph    
Visibility 10 miles    
Events      
T = Trace of Precipitation, MM = Missing Value Source: NWS Daily Summary

Daily Weather History Graph

Daily Weather History Graph

Search for Another Location

Airport or City:

Trip Planner

Search our weather history database for the weather conditions in past years. The results will help you decide how hot, cold, wet, or windy it might be!

Date:

Astronomy

Nov. 21, 2010 Rise Set
Actual Time 7:04 AM CST 5:23 PM CST
Civil Twilight 6:37 AM CST 5:50 PM CST
Nautical Twilight 6:07 AM CST 6:20 PM CST
Astronomical Twilight 5:37 AM CST 6:49 PM CST
Moon 5:19 PM CST (11/21) 7:02 AM CST (11/21)
Length of Visible Light 11h 12m
Length of Day
10h 19m
Full, 100% of the Moon is Illuminated
Nov 21
Full
Nov 28
Last Quarter
Dec 5
New
Dec 13
First Quarter
Dec 21
Full

Hourly Weather History & Observations

Time (CST) Temp. Heat Index Dew Point Humidity Pressure Visibility Wind Dir Wind Speed Gust Speed Precip Events Conditions
12:47 AM 64.4 °F - 59.0 °F 83% 30.00 in 10.0 mi South 17.3 mph 23.0 mph N/A   Mostly Cloudy
12:53 AM 64.0 °F - 59.0 °F 84% 29.98 in 10.0 mi South 12.7 mph 23.0 mph N/A   Mostly Cloudy
1:53 AM 64.0 °F - 60.1 °F 87% 29.98 in 10.0 mi South 11.5 mph - N/A   Overcast
2:53 AM 64.4 °F - 60.8 °F 88% 29.99 in 10.0 mi SSE 11.5 mph - N/A   Overcast
3:20 AM 64.4 °F - 60.8 °F 88% 29.98 in 10.0 mi South 9.2 mph - N/A   Mostly Cloudy
3:53 AM 66.0 °F - 61.0 °F 84% 29.96 in 10.0 mi South 12.7 mph 18.4 mph N/A   Overcast
4:53 AM 66.0 °F - 62.1 °F 87% 29.96 in 10.0 mi South 12.7 mph - N/A   Overcast
5:30 AM 66.2 °F - 62.6 °F 88% 29.97 in 10.0 mi South 11.5 mph - N/A   Overcast
5:53 AM 66.2 °F - 62.6 °F 88% 29.97 in 10.0 mi South 13.8 mph 23.0 mph N/A   Overcast
6:53 AM 66.9 °F - 63.0 °F 87% 29.96 in 10.0 mi South 16.1 mph 24.2 mph N/A   Overcast
7:53 AM 68.0 °F - 64.0 °F 87% 29.97 in 10.0 mi South 11.5 mph - N/A   Overcast
8:49 AM 69.8 °F - 64.4 °F 83% 29.98 in 10.0 mi South 19.6 mph 27.6 mph N/A   Overcast
8:53 AM 70.0 °F - 64.0 °F 81% 29.96 in 10.0 mi South 18.4 mph 26.5 mph N/A   Overcast
9:08 AM 69.8 °F - 64.4 °F 83% 29.98 in 10.0 mi South 18.4 mph 27.6 mph N/A   Overcast
9:53 AM 72.0 °F - 64.0 °F 76% 29.96 in 10.0 mi South 23.0 mph 28.8 mph N/A   Overcast
10:53 AM 75.0 °F - 64.0 °F 69% 29.94 in 10.0 mi South 17.3 mph 33.4 mph N/A   Overcast
11:10 AM 75.2 °F - 64.4 °F 69% 29.95 in 10.0 mi South 18.4 mph 34.5 mph N/A   Overcast
11:53 AM 75.9 °F - 64.0 °F 67% 29.91 in 10.0 mi South 26.5 mph 35.7 mph N/A   Overcast
12:53 PM 78.1 °F - 63.0 °F 60% 29.89 in 10.0 mi South 25.3 mph 31.1 mph N/A   Overcast
1:53 PM 80.1 °F 81.2 °F 62.1 °F 54% 29.87 in 10.0 mi South 26.5 mph 35.7 mph N/A   Mostly Cloudy
2:53 PM 80.1 °F 81.1 °F 61.0 °F 52% 29.85 in 10.0 mi South 27.6 mph 35.7 mph N/A   Mostly Cloudy
3:53 PM 78.1 °F - 60.1 °F 54% 29.85 in 10.0 mi South 23.0 mph 35.7 mph N/A   Mostly Cloudy
4:53 PM 78.1 °F - 61.0 °F 56% 29.85 in 10.0 mi South 21.9 mph 29.9 mph N/A   Mostly Cloudy
5:53 PM 75.9 °F - 61.0 °F 60% 29.85 in 10.0 mi South 13.8 mph - N/A   Mostly Cloudy
6:53 PM 75.0 °F - 61.0 °F 62% 29.86 in 10.0 mi South 15.0 mph - N/A   Mostly Cloudy
7:53 PM 73.9 °F - 62.1 °F 66% 29.87 in 10.0 mi South 19.6 mph - N/A   Mostly Cloudy
8:53 PM 73.0 °F - 62.1 °F 68% 29.87 in 10.0 mi South 17.3 mph 27.6 mph N/A   Mostly Cloudy
9:53 PM 71.1 °F - 62.1 °F 73% 29.89 in 10.0 mi South 18.4 mph 25.3 mph N/A   Scattered Clouds
10:53 PM 70.0 °F - 62.1 °F 76% 29.89 in 10.0 mi South 19.6 mph 28.8 mph N/A   Partly Cloudy
11:53 PM 69.1 °F - 63.0 °F 81% 29.89 in 10.0 mi South 18.4 mph 27.6 mph N/A   Scattered Clouds